When you browse on this site, cookies collect data to enhance your experience and personalize the content and advertising you see.
Visit our Privacy Policy to learn more. By continuing to use the site, you agree to this use of cookies and data.
  • In Österreich
  • Länderverzeichnis
  • Für 7 Tage
  • Wassertemperatur
  • Wetterkarte
  • News
  • Widgets
  • user-avatar
    Anmelden

    Stündliche Wetter Bad Ischl

    Heute, 4 Juni, Donnerstag

    Zeit Temperatur Niederschläge Wind Luftdruck Luftfeuchtigkeit
    00:00 +12°C° 0 mm 2 m/S 704 mmHg 84%
    01:00 +12°C° 0 mm 2 m/S 704 mmHg 85%
    02:00 +12°C° 0 mm 2 m/S 703 mmHg 85%
    03:00 +12°C° 0 mm 2 m/S 703 mmHg 85%
    04:00 +10°C° 0 mm 2 m/S 702 mmHg 85%
    05:00 +13°C° 0 mm 1 m/S 702 mmHg 81%
    06:00 +15°C° 0 mm 1 m/S 702 mmHg 77%
    07:00 +18°C° 0 mm 1 m/S 702 mmHg 72%
    08:00 +19°C° 0 mm 1 m/S 702 mmHg 67%
    09:00 +21°C° 0 mm 1 m/S 703 mmHg 61%
    10:00 +23°C° 0 mm 1 m/S 703 mmHg 55%
    11:00 +23°C° 0.1 mm 1 m/S 702 mmHg 56%
    12:00 +23°C° 0.1 mm 1 m/S 702 mmHg 57%
    13:00 +24°C° 0.1 mm 1 m/S 701 mmHg 59%
    14:00 +23°C° 0.7 mm 1 m/S 701 mmHg 68%
    15:00 +22°C° 0.7 mm 1 m/S 700 mmHg 77%
    16:00 +21°C° 0.7 mm 1 m/S 700 mmHg 85%
    17:00 +18°C° 1.6 mm 2 m/S 700 mmHg 88%
    18:00 +17°C° 1.6 mm 2 m/S 699 mmHg 90%
    19:00 +16°C° 1.6 mm 3 m/S 699 mmHg 92%
    20:00 +15°C° 0.5 mm 2 m/S 699 mmHg 94%
    21:00 +14°C° 0.5 mm 1 m/S 699 mmHg 96%
    22:00 +13°C° 0.5 mm 1 m/S 700 mmHg 97%
    23:00 +13°C° 1.7 mm 1 m/S 699 mmHg 98%

    Morgen, 5 Juni, Freitag

    Zeit Temperatur Niederschläge Wind Luftdruck Luftfeuchtigkeit
    00:00 +13°C° 1.7 mm 1 m/S 699 mmHg 98%
    01:00 +13°C° 1.7 mm 1 m/S 699 mmHg 98%
    02:00 +13°C° 1.8 mm 1 m/S 699 mmHg 98%
    03:00 +12°C° 1.8 mm 1 m/S 699 mmHg 98%
    04:00 +12°C° 1.8 mm 1 m/S 699 mmHg 97%
    05:00 +12°C° 0.6 mm 1 m/S 699 mmHg 97%
    06:00 +12°C° 0.6 mm 1 m/S 700 mmHg 97%
    07:00 +13°C° 0.6 mm 1 m/S 700 mmHg 96%
    08:00 +13°C° 1 mm 1 m/S 701 mmHg 96%
    09:00 +12°C° 1 mm 2 m/S 701 mmHg 96%
    10:00 +12°C° 1 mm 2 m/S 701 mmHg 96%
    11:00 +13°C° 0.7 mm 2 m/S 702 mmHg 91%
    12:00 +14°C° 0.7 mm 2 m/S 702 mmHg 87%
    13:00 +15°C° 0.7 mm 1 m/S 703 mmHg 83%
    14:00 +15°C° 0.3 mm 1 m/S 703 mmHg 81%
    15:00 +16°C° 0.3 mm 1 m/S 703 mmHg 80%
    16:00 +16°C° 0.3 mm 1 m/S 703 mmHg 78%
    17:00 +16°C° 0.1 mm 1 m/S 703 mmHg 81%
    18:00 +15°C° 0.1 mm 1 m/S 703 mmHg 83%
    19:00 +14°C° 0.1 mm 1 m/S 703 mmHg 86%
    20:00 +14°C° 0 mm 1 m/S 704 mmHg 86%
    21:00 +13°C° 0 mm 1 m/S 704 mmHg 86%
    22:00 +12°C° 0 mm 1 m/S 705 mmHg 86%
    23:00 +11°C° 0 mm 1 m/S 705 mmHg 87%

    übermorgen, 6 Juni, Samstag

    Zeit Temperatur Niederschläge Wind Luftdruck Luftfeuchtigkeit
    00:00 +11°C° 0 mm 1 m/S 705 mmHg 89%
    01:00 +9°C° 0 mm 2 m/S 705 mmHg 90%
    02:00 +8°C° 0 mm 2 m/S 705 mmHg 90%
    03:00 +8°C° 0 mm 2 m/S 705 mmHg 90%
    04:00 +8°C° 0 mm 2 m/S 705 mmHg 90%
    05:00 +11°C° 0 mm 1 m/S 706 mmHg 85%
    06:00 +13°C° 0 mm 1 m/S 706 mmHg 80%
    07:00 +15°C° 0 mm 1 m/S 707 mmHg 75%
    08:00 +16°C° 0 mm 1 m/S 707 mmHg 70%
    09:00 +19°C° 0 mm 1 m/S 707 mmHg 65%
    10:00 +19°C° 0 mm 2 m/S 708 mmHg 61%
    11:00 +19°C° 0.1 mm 2 m/S 708 mmHg 63%
    12:00 +19°C° 0.1 mm 2 m/S 707 mmHg 66%
    13:00 +19°C° 0.1 mm 2 m/S 707 mmHg 69%
    14:00 +19°C° 0.1 mm 2 m/S 707 mmHg 72%
    15:00 +18°C° 0.1 mm 2 m/S 707 mmHg 75%
    16:00 +18°C° 0.1 mm 2 m/S 707 mmHg 79%
    17:00 +18°C° 0.3 mm 1 m/S 707 mmHg 85%
    18:00 +16°C° 0.3 mm 1 m/S 707 mmHg 90%
    19:00 +15°C° 0.3 mm 1 m/S 707 mmHg 96%
    20:00 +15°C° 1.3 mm 1 m/S 708 mmHg 97%
    21:00 +14°C° 1.3 mm 1 m/S 708 mmHg 97%
    22:00 +14°C° 1.3 mm 1 m/S 708 mmHg 98%
    23:00 +14°C° 0.6 mm 1 m/S 708 mmHg 98%

    7 Juni, Sonntag

    Zeit Temperatur Niederschläge Wind Luftdruck Luftfeuchtigkeit
    00:00 +14°C° 0.6 mm 1 m/S 708 mmHg 97%
    01:00 +14°C° 0.6 mm 1 m/S 708 mmHg 97%
    02:00 +13°C° 0.2 mm 1 m/S 708 mmHg 96%
    03:00 +13°C° 0.2 mm 1 m/S 708 mmHg 96%
    04:00 +13°C° 0.2 mm 1 m/S 708 mmHg 95%
    05:00 +13°C° 0 mm 1 m/S 708 mmHg 95%
    06:00 +14°C° 0 mm 1 m/S 708 mmHg 95%
    07:00 +14°C° 0 mm 1 m/S 709 mmHg 95%
    08:00 +15°C° 0 mm 1 m/S 709 mmHg 91%
    09:00 +16°C° 0 mm 1 m/S 709 mmHg 88%
    10:00 +18°C° 0 mm 1 m/S 709 mmHg 85%
    11:00 +19°C° 0.1 mm 1 m/S 709 mmHg 80%
    12:00 +20°C° 0.1 mm 1 m/S 709 mmHg 75%
    13:00 +21°C° 0.1 mm 1 m/S 709 mmHg 70%
    14:00 +19°C° 0.5 mm 2 m/S 709 mmHg 78%
    15:00 +17°C° 0.5 mm 2 m/S 709 mmHg 87%
    16:00 +14°C° 0.5 mm 3 m/S 709 mmHg 95%
    17:00 +14°C° 1.4 mm 2 m/S 709 mmHg 96%
    18:00 +13°C° 1.4 mm 2 m/S 709 mmHg 97%
    19:00 +12°C° 1.4 mm 2 m/S 709 mmHg 98%
    20:00 +10°C° 2.3 mm 2 m/S 709 mmHg 98%
    21:00 +11°C° 2.3 mm 1 m/S 709 mmHg 98%
    22:00 +11°C° 2.3 mm 1 m/S 710 mmHg 98%
    23:00 +11°C° 1.4 mm 1 m/S 710 mmHg 99%

    8 Juni, Montag

    Zeit Temperatur Niederschläge Wind Luftdruck Luftfeuchtigkeit
    00:00 +11°C° 1.4 mm 1 m/S 710 mmHg 99%
    01:00 +11°C° 1.4 mm 1 m/S 710 mmHg 99%
    02:00 +11°C° 1.1 mm 1 m/S 709 mmHg 99%
    03:00 +11°C° 1.1 mm 1 m/S 709 mmHg 99%
    04:00 +11°C° 1.1 mm 1 m/S 709 mmHg 99%
    05:00 +11°C° 0.6 mm 1 m/S 710 mmHg 99%
    06:00 +11°C° 0.6 mm 1 m/S 710 mmHg 99%
    07:00 +10°C° 0.6 mm 2 m/S 710 mmHg 98%
    08:00 +11°C° 0.8 mm 1 m/S 710 mmHg 98%
    09:00 +11°C° 0.8 mm 1 m/S 710 mmHg 98%
    10:00 +10°C° 0.8 mm 1 m/S 711 mmHg 98%
    11:00 +11°C° 0.6 mm 1 m/S 711 mmHg 97%
    12:00 +11°C° 0.6 mm 1 m/S 711 mmHg 97%
    13:00 +11°C° 0.6 mm 1 m/S 711 mmHg 97%
    14:00 +11°C° 0.1 mm 1 m/S 711 mmHg 95%
    15:00 +12°C° 0.1 mm 1 m/S 710 mmHg 93%
    16:00 +12°C° 0.1 mm 1 m/S 710 mmHg 92%
    17:00 +12°C° 0.1 mm 1 m/S 710 mmHg 93%
    18:00 +11°C° 0.1 mm 1 m/S 710 mmHg 95%
    19:00 +11°C° 0.1 mm 1 m/S 711 mmHg 96%
    20:00 +11°C° 0.4 mm 1 m/S 711 mmHg 96%
    21:00 +11°C° 0.4 mm 1 m/S 711 mmHg 97%
    22:00 +11°C° 0.4 mm 1 m/S 712 mmHg 97%
    23:00 +11°C° 0.2 mm 1 m/S 712 mmHg 97%

    9 Juni, Dienstag

    Zeit Temperatur Niederschläge Wind Luftdruck Luftfeuchtigkeit
    00:00 +10°C° 0.2 mm 1 m/S 712 mmHg 97%
    01:00 +10°C° 0.2 mm 1 m/S 712 mmHg 97%
    02:00 +10°C° 0.2 mm 1 m/S 712 mmHg 96%
    03:00 +10°C° 0.2 mm 1 m/S 712 mmHg 95%
    04:00 +10°C° 0.2 mm 1 m/S 712 mmHg 95%
    05:00 +10°C° 0.7 mm 1 m/S 712 mmHg 95%
    06:00 +11°C° 0.7 mm 1 m/S 712 mmHg 96%
    07:00 +11°C° 0.7 mm 1 m/S 713 mmHg 96%
    08:00 +11°C° 0.9 mm 1 m/S 713 mmHg 96%
    09:00 +11°C° 0.9 mm 1 m/S 713 mmHg 96%
    10:00 +11°C° 0.9 mm 1 m/S 713 mmHg 96%
    11:00 +11°C° 1.4 mm 1 m/S 713 mmHg 96%
    12:00 +11°C° 1.4 mm 1 m/S 713 mmHg 96%
    13:00 +10°C° 1.4 mm 0 m/S 713 mmHg 96%
    14:00 +11°C° 0.1 mm 0 m/S 713 mmHg 94%
    15:00 +11°C° 0.1 mm 0 m/S 713 mmHg 91%
    16:00 +12°C° 0.1 mm 0 m/S 713 mmHg 89%
    17:00 +12°C° 0 mm 0 m/S 713 mmHg 89%
    18:00 +12°C° 0 mm 0 m/S 713 mmHg 90%
    19:00 +12°C° 0 mm 0 m/S 713 mmHg 91%
    20:00 +11°C° 0 mm 0 m/S 713 mmHg 92%
    21:00 +11°C° 0 mm 1 m/S 714 mmHg 93%
    22:00 +10°C° 0 mm 1 m/S 714 mmHg 94%
    23:00 +10°C° 0 mm 1 m/S 714 mmHg 93%
    Mehr zeigen